Location: Grasslands National Park East Block
(49.0708°N, 106.5295°W)
Time: 05:29:59
(UTC-06:00)

Vanguard 1 - Pass Details

Date: 27 September 2019
Orbit: 653 x 3830 km, 34.3° (Epoch: 14 October)

Event Time Altitude Azimuth Distance (km) Brightness Sun altitude
Rises 05:20:58 0° 267° (W) 7,914 - -16.8°
Reaches altitude 10° 05:26:40 10° 263° (W) 6,937 - -15.9°
Exits shadow 05:30:31 17° 259° (WSW) 6,281 13.5 -15.3°
Maximum altitude 05:47:34 46° 200° (SSW) 4,026 12.9 -12.6°
Drops below altitude 10° 06:02:13 10° 134° (SE) 4,988 14.2 -10.2°
Sets 06:05:32 0° 128° (SE) 5,627 14.6 -9.7°
